Location: Unspecified
(0.0000°N, 0.0000°E)
Time: 10:11:20
(UTC+00:00)

deb DAPP - Pass Details

Date: 18 December 2025
Orbit: 606 x 945 km, 99.0° (Epoch: 17 January)

Event Time Altitude Azimuth Distance (km) Brightness Sun altitude
Rises 20:11:11 0° 200° (SSW) 3,241 ? -30.5°
Reaches altitude 10° 20:14:15 10° 220° (SW) 2,379 ? -31.2°
Maximum altitude 20:17:29 17° 258° (WSW) 2,017 ? -31.9°
Drops below altitude 10° 20:20:53 10° 296° (WNW) 2,505 ? -32.6°
Sets 20:24:16 0° 316° (NW) 3,496 ? -33.4°
